Actual water levels and discharges of Vltava river

Vraňany

Date and time (UTC) H (cm) Q (m³/s)
11. 8. 2022 09:50 92 151
11. 8. 2022 09:00 100 162
11. 8. 2022 08:00 101 163
11. 8. 2022 07:00 101 163
11. 8. 2022 06:00 101 163
11. 8. 2022 05:00 102 165
11. 8. 2022 04:00 101 163
11. 8. 2022 03:00 101 163
11. 8. 2022 02:00 101 163
11. 8. 2022 01:00 101 163
11. 8. 2022 00:00 101 163
10. 8. 2022 23:00 101 163
10. 8. 2022 22:00 101 163
10. 8. 2022 21:00 101 163

H - water level, Q - discharge

Praha-Chuchle

Date and time (UTC) H (cm) Q (m³/s)
11. 8. 2022 09:50 71 148
11. 8. 2022 09:00 70 143
11. 8. 2022 08:00 71 148
11. 8. 2022 07:00 71 148
11. 8. 2022 06:00 71 148
11. 8. 2022 05:00 71 148
11. 8. 2022 04:00 71 148
11. 8. 2022 03:00 71 148
11. 8. 2022 02:00 71 148
11. 8. 2022 01:00 71 148
11. 8. 2022 00:00 72 153
10. 8. 2022 23:00 71 148
10. 8. 2022 22:00 71 148
10. 8. 2022 21:00 72 153

H - water level, Q - discharge
more information

VD Vrané nad Vltavou

Date and time (UTC) H (m n. m.) Q (m³/s)
11. 8. 2022 11:00 199.78 140.5
11. 8. 2022 10:00 199.74 140
11. 8. 2022 09:00 199.70 141
11. 8. 2022 08:00 199.65 141
11. 8. 2022 07:00 199.60 140
11. 8. 2022 06:00 199.57 140
11. 8. 2022 05:00 199.53 140
11. 8. 2022 04:00 199.54 140
11. 8. 2022 03:00 199.58 140
11. 8. 2022 02:00 199.61 140
11. 8. 2022 01:00 199.58 140
11. 8. 2022 00:00 199.54 141
10. 8. 2022 23:00 199.50 141

H - water level, Q - outflow

VD Štěchovice

Date and time (UTC) H (m n. m.) Q (m³/s)
11. 8. 2022 11:00 217.48 159.9
11. 8. 2022 10:00 217.35 160
11. 8. 2022 09:00 217.21 160
11. 8. 2022 08:00 217.08 158
11. 8. 2022 07:00 216.94 159
11. 8. 2022 06:00 216.82 158
11. 8. 2022 05:00 216.67 157
11. 8. 2022 04:00 216.56 135
11. 8. 2022 03:00 216.98 104
11. 8. 2022 02:00 217.39 119
11. 8. 2022 01:00 217.18 150
11. 8. 2022 00:00 217.04 159
10. 8. 2022 23:00 217.27 160

H - water level, Q - outflow

VD Slapy

Date and time (UTC) H (m n. m.) Q (m³/s)
11. 8. 2022 11:00 269.73 192.4
11. 8. 2022 10:00 269.72 192
11. 8. 2022 09:00 269.69 179
11. 8. 2022 08:00 269.68 179
11. 8. 2022 07:00 269.60 185
11. 8. 2022 06:00 269.62 138
11. 8. 2022 05:00 269.64 184
11. 8. 2022 04:00 269.65 52
11. 8. 2022 03:00 269.66 0
11. 8. 2022 02:00 269.64 142
11. 8. 2022 01:00 269.68 188
11. 8. 2022 00:00 269.71 101
10. 8. 2022 23:00 269.67 84

H - water level, Q - outflow

VD Kamýk

Date and time (UTC) H (m n. m.) Q (m³/s)
11. 8. 2022 11:00 283.24 -
11. 8. 2022 10:00 283.37 -
11. 8. 2022 09:00 283.05 -
11. 8. 2022 08:00 282.87 -
11. 8. 2022 07:00 282.66 -
11. 8. 2022 06:00 282.49 -
11. 8. 2022 05:00 282.79 -
11. 8. 2022 04:00 282.93 -
11. 8. 2022 03:00 283.02 -
11. 8. 2022 02:00 283.21 -
11. 8. 2022 01:00 283.41 -
11. 8. 2022 00:00 283.52 -
10. 8. 2022 23:00 283.33 -

H - water level, Q - outflow

VD Orlík

Date and time (UTC) H (m n. m.) Q (m³/s)
11. 8. 2022 11:00 342.86 140.8
11. 8. 2022 10:00 342.90 357
11. 8. 2022 09:00 342.95 391
11. 8. 2022 08:00 343.02 391
11. 8. 2022 07:00 343.10 415
11. 8. 2022 06:00 343.14 136
11. 8. 2022 05:00 343.16 0
11. 8. 2022 04:00 343.16 0
11. 8. 2022 03:00 343.15 0
11. 8. 2022 02:00 343.15 0
11. 8. 2022 01:00 343.15 0
11. 8. 2022 00:00 343.14 181
10. 8. 2022 23:00 343.18 357

H - water level, Q - outflow

VD Kořensko

Date and time (UTC) H (m n. m.) Q (m³/s)
11. 8. 2022 11:00 352.43 18.7
11. 8. 2022 10:00 352.43 19
11. 8. 2022 09:00 352.43 19
11. 8. 2022 08:00 352.42 19
11. 8. 2022 07:00 352.42 19
11. 8. 2022 06:00 352.43 19
11. 8. 2022 05:00 352.43 19
11. 8. 2022 04:00 352.44 19
11. 8. 2022 03:00 352.45 19
11. 8. 2022 02:00 352.45 19
11. 8. 2022 01:00 352.46 19
11. 8. 2022 00:00 352.47 19
10. 8. 2022 23:00 352.48 26

H - water level, Q - outflow

VD Hněvkovice I - přehrada

Date and time (UTC) H (m n. m.) Q (m³/s)
- - -

H - water level, Q - outflow

České Budějovice

Date and time (UTC) H (cm) Q (m³/s)
11. 8. 2022 09:50 96 15.5
11. 8. 2022 09:00 96 15
11. 8. 2022 08:00 97 15
11. 8. 2022 07:00 99 14
11. 8. 2022 06:00 99 15
11. 8. 2022 05:00 99 14
11. 8. 2022 04:00 98 15
11. 8. 2022 03:00 99 14
11. 8. 2022 02:00 99 15
11. 8. 2022 01:00 99 14
11. 8. 2022 00:00 99 14
10. 8. 2022 23:00 98 14
10. 8. 2022 22:00 99 14
10. 8. 2022 21:00 98 14

H - water level, Q - discharge
more information

Vyšší Brod

Date and time (UTC) H (cm) Q (m³/s)
11. 8. 2022 09:50 88 10.1
11. 8. 2022 09:00 88 10
11. 8. 2022 08:00 89 10
11. 8. 2022 07:00 89 10
11. 8. 2022 06:00 89 10
11. 8. 2022 05:00 89 10
11. 8. 2022 04:00 89 10
11. 8. 2022 03:00 88 10
11. 8. 2022 02:00 88 10
11. 8. 2022 01:00 87 10
11. 8. 2022 00:00 87 10
10. 8. 2022 23:00 87 10
10. 8. 2022 22:00 87 10
10. 8. 2022 21:00 88 10

H - water level, Q - discharge
Source data
Labe Basin Vltava Basin Povodí Moravy ČHMÚ